[[{"header":{"parameterUnit":"m.s-1","parameterCategory":1,"la1":30.2991,"la2":30.254,"lo1":-89.0895,"lo2":-89.0444,"dy":0.0017,"dx":0.0017,"nx":28,"ny":28,"refTime":"2024-07-04T21:00:00:Z","depth":0,"parameterNumber":2,"parameterNumberName":"U-component_of_WINDS"},"data":[0,0,0,0,0,0,0,0,0,0,0,0,0,0,0,0,0,0,0,0,0,0,0,0,0,0,0,0,0,0,0,0,0,0,0,0,0,0,0,0,0,0,0,0,0,0,0,0,0,0,0,0,0,0,0,0,0,0,3.6872,3.6873,0,3.6951,3.6952,3.6953,3.6878,3.6875,3.6872,3.6869,3.6952,3.6957,3.6962,0,0,0,0,0,0,0,0,0,0,0,0,0,3.6659,3.6663,3.6872,3.6873,3.6874,3.6951,3.6952,3.6953,3.6879,3.6875,3.6871,3.6868,3.695,3.6956,3.6962,0,0,0,0,0,0,0,0,0,0,0,0,0,3.6746,3.6665,3.6872,3.6846,3.6845,3.6951,3.6952,3.6954,3.6879,3.6875,3.687,3.6866,3.6949,3.6956,3.6963,3.7099,0,0,3.6986,3.6989,0,0,0,0,0,0,0,0,3.6741,3.6754,3.6849,3.6848,3.6847,3.69,3.6907,3.7003,3.6881,3.6866,3.6869,3.6864,3.6939,3.6947,3.6971,3.7103,3.7107,3.6987,3.6991,3.6995,3.6997,0,0,0,0,0,0,0,3.6735,3.675,3.6904,3.6851,3.6849,3.6831,3.6839,3.6925,3.6927,3.6867,3.6862,3.6872,3.6937,3.6964,3.6973,3.7108,3.6987,3.6993,3.6998,3.7001,3.7357,3.7362,0,0,0,0,0,0,3.6732,3.6746,3.6901,3.6906,3.6782,3.6839,3.6847,3.6888,3.6926,3.6927,3.6876,3.6868,3.6954,3.6964,3.6975,3.7139,3.6994,3.7002,3.7006,3.7352,3.7358,3.7364,0,0,0,0,0,0,3.6728,3.6746,3.6898,3.6825,3.6842,3.6847,3.6893,3.6892,3.6919,3.6932,3.6932,3.6903,3.6951,3.6965,3.7069,3.7141,3.7005,3.7012,3.7347,3.7354,3.7361,3.7466,0,0,0,0,0,0,3.6722,3.6745,3.6797,3.6826,3.6847,3.699,3.6898,3.6896,3.6932,3.6923,3.6958,3.696,3.6948,3.7059,3.7077,3.7149,3.7018,3.734,3.735,3.7359,3.7457,3.7476,3.7493,0,0,0,0,0,3.6714,3.6823,3.68,3.6819,3.6911,3.6995,3.7006,3.699,3.6938,3.699,3.6999,3.6958,3.7129,3.707,3.709,3.7165,3.7336,3.7347,3.7358,3.7448,3.7473,3.7493,0,0,0,0,0,0,3.6803,3.6827,3.6801,3.6922,3.6957,3.6982,3.7047,3.7016,3.7067,3.7057,3.7035,3.7044,3.7155,3.717,3.7103,3.7299,3.7224,3.724,3.7286,3.7309,3.7327,3.7322,3.7024,0,0,0,0,0,3.6836,3.6902,3.6919,3.7025,3.7043,3.7043,3.7078,3.7063,3.7098,3.7113,3.7129,3.7165,3.7227,3.7269,3.7326,3.7458,3.7465,3.7519,3.7537,3.7553,3.7567,3.7639,3.7664,3.7401,3.74,3.74,0,0,3.6907,3.6928,3.697,3.7043,3.7068,3.7137,3.7055,3.7131,3.7183,3.7124,3.7224,3.7238,3.7277,3.7396,3.7449,3.7412,3.7641,3.7567,3.7579,3.7585,3.7653,3.7678,3.7701,3.7408,3.7407,3.7406,0,0,3.707,3.7092,3.7183,3.721,3.7248,3.7247,3.7269,3.7299,3.7305,3.7405,3.7363,3.7424,3.753,3.7561,3.759,3.7765,3.7731,3.7784,3.7882,3.7952,3.7973,3.7992,3.8056,3.8079,3.7798,3.7799,3.7799,0,3.7153,3.7255,3.7234,3.7314,3.7348,3.7297,3.739,3.7417,3.7473,3.7498,3.7455,3.7588,3.7611,3.7737,3.778,3.7805,3.783,3.7781,3.7972,3.799,3.8007,3.8068,3.8092,3.7805,3.7804,3.7804,3.7803,0,3.7356,3.7427,3.7496,3.7551,3.7592,3.7678,3.7671,3.7716,3.7697,3.77,3.7803,3.7828,3.7891,3.7919,3.7901,3.8044,3.8019,3.7975,3.7899,3.8039,3.8096,3.8119,3.7814,3.7812,3.781,3.7808,0,0,3.7579,3.7621,3.7647,3.7672,3.771,3.7766,3.7849,3.791,3.7949,3.7989,3.806,3.8152,3.8111,3.8144,3.8129,3.8191,3.8331,3.8139,3.8139,3.8175,3.8491,3.8526,3.8553,3.8307,3.8311,3.8315,3.8488,0,3.7745,3.7891,3.7874,3.8014,3.808,3.8033,3.8106,3.8138,3.8144,3.8201,3.8207,3.8273,3.8213,3.8233,3.8292,3.8301,3.8394,3.8288,3.8375,3.8378,3.8368,3.8583,3.862,3.8783,3.851,3.8514,3.8517,0,3.796,3.8007,3.8153,3.8182,3.821,3.8276,3.8331,3.8386,3.8422,3.8421,3.8459,3.8433,3.8518,3.8439,3.8557,3.8486,3.852,3.853,3.8536,3.8545,3.8457,3.86,3.8834,3.8859,3.8551,3.8549,3.8546,0,3.8111,3.8211,3.8311,3.8334,3.837,3.8418,3.8435,3.8466,3.8504,3.8552,3.8577,3.8634,3.8666,3.8711,3.8702,3.8645,3.8824,3.8743,3.8827,3.8828,3.8869,3.8867,3.9114,3.8887,3.8887,3.8886,3.8886,0,3.83,3.8392,3.838,3.8442,3.8544,3.8524,3.8625,3.8636,3.8665,3.8729,3.8691,3.8752,3.8735,3.8796,3.8789,3.8889,3.8903,3.8906,3.8904,3.8911,3.8911,3.8935,3.8924,3.8893,3.8891,3.889,3.8889,0,3.8487,3.8482,3.8589,3.8614,3.8623,3.8697,3.8719,3.8778,3.8779,3.8861,3.8879,3.8883,3.8953,3.8947,3.9026,3.9021,3.9146,3.9129,3.9134,3.9131,3.9216,3.9209,3.9488,3.9525,3.9273,3.9275,3.9277,0,3.8609,3.8678,3.8711,3.8751,3.8772,3.8836,3.8874,3.8857,3.8899,3.8945,3.8999,3.9065,3.9117,3.9231,3.9241,3.9301,3.9287,3.9381,3.9296,3.9301,3.9291,3.9288,3.9296,3.9398,3.9401,3.9403,3.9405,0,3.8827,3.8821,3.8878,3.8934,3.898,3.9024,3.9063,3.9098,3.9085,3.9134,3.9204,3.9245,3.9325,3.9392,3.9449,3.9467,3.9436,3.9431,3.9455,3.9464,3.9465,3.9468,3.9182,3.9426,3.9424,3.9422,3.9421,3.942,3.8987,3.9047,3.908,3.9144,3.9171,3.9209,3.9266,3.9275,3.9333,3.9397,3.9383,3.9463,3.9497,3.9571,3.9595,3.9658,3.9624,3.9657,3.9666,3.9675,3.9685,3.9453,3.9668,3.9667,3.9666,3.9666,3.9666,0,3.9205,3.9224,3.9283,3.9339,3.939,3.9353,3.9395,3.944,3.9511,3.9545,3.9597,3.9679,3.9743,3.9758,3.982,3.9868,3.9855,3.9885,3.9882,3.9887,3.9711,3.9686,3.9894,3.9894,3.9894,3.9894,3.9894,3.9894,3.9325,3.9425,3.9423,3.9537,3.9554,3.9632,3.9659,3.9694,3.9722,3.9814,3.9867,3.9876,3.9903,3.9967,4.0025,4.0027,4.0053,4.009,4.0087,3.9922,3.99,3.9878,3.9854,4.0095,4.0095,4.0259,4.026,4.0261]},{"header":{"parameterUnit":"m.s-1","parameterCategory":1,"la1":30.2991,"la2":30.254,"lo1":-89.0895,"lo2":-89.0444,"dy":0.0017,"dx":0.0017,"nx":28,"ny":28,"refTime":"2024-07-04T21:00:00:Z","depth":0,"parameterNumber":3,"parameterNumberName":"V-component_of_WINDS"},"data":[0,0,0,0,0,0,0,0,0,0,0,0,0,0,0,0,0,0,0,0,0,0,0,0,0,0,0,0,0,0,0,0,0,0,0,0,0,0,0,0,0,0,0,0,0,0,0,0,0,0,0,0,0,0,0,0,0,0,-1.2656,-1.2657,0,-1.2712,-1.2712,-1.2713,-1.2749,-1.2749,-1.2749,-1.2749,-1.2804,-1.2805,-1.2807,0,0,0,0,0,0,0,0,0,0,0,0,0,-1.258,-1.2581,-1.2656,-1.2657,-1.2658,-1.2712,-1.2712,-1.2713,-1.2749,-1.2749,-1.2749,-1.2749,-1.2804,-1.2805,-1.2807,0,0,0,0,0,0,0,0,0,0,0,0,0,-1.2622,-1.2582,-1.2656,-1.2682,-1.2685,-1.2712,-1.2712,-1.2713,-1.2749,-1.2749,-1.2749,-1.2749,-1.2803,-1.2805,-1.2807,-1.2812,0,0,-1.2813,-1.2814,0,0,0,0,0,0,0,0,-1.262,-1.2625,-1.2677,-1.268,-1.2683,-1.2724,-1.2706,-1.2746,-1.2748,-1.2724,-1.2749,-1.275,-1.2777,-1.2781,-1.2791,-1.2815,-1.2817,-1.2813,-1.2814,-1.2815,-1.2815,0,0,0,0,0,0,0,-1.2617,-1.2623,-1.2678,-1.2678,-1.2682,-1.269,-1.2697,-1.2714,-1.2748,-1.2726,-1.2729,-1.2735,-1.2779,-1.2789,-1.2792,-1.2818,-1.2813,-1.2815,-1.2816,-1.2816,-1.2849,-1.2849,0,0,0,0,0,0,-1.261,-1.262,-1.2676,-1.268,-1.2652,-1.2691,-1.2699,-1.271,-1.2748,-1.2754,-1.2735,-1.2737,-1.2785,-1.279,-1.2794,-1.2803,-1.2815,-1.2817,-1.2818,-1.2849,-1.2849,-1.2849,0,0,0,0,0,0,-1.2608,-1.2615,-1.2674,-1.2651,-1.2659,-1.2692,-1.2705,-1.2711,-1.2721,-1.2754,-1.2761,-1.2739,-1.2786,-1.2792,-1.2808,-1.2805,-1.2817,-1.2819,-1.285,-1.2849,-1.2849,-1.282,0,0,0,0,0,0,-1.2606,-1.2614,-1.2616,-1.2651,-1.266,-1.2687,-1.2705,-1.2712,-1.2725,-1.2728,-1.276,-1.2765,-1.2787,-1.2805,-1.2809,-1.2808,-1.2821,-1.285,-1.2849,-1.2849,-1.2821,-1.2818,-1.2816,0,0,0,0,0,-1.2603,-1.2605,-1.2616,-1.2623,-1.2664,-1.2687,-1.2692,-1.2717,-1.2724,-1.2727,-1.2748,-1.2764,-1.2805,-1.2806,-1.2812,-1.2811,-1.285,-1.285,-1.2849,-1.2822,-1.2819,-1.2816,0,0,0,0,0,0,-1.2569,-1.261,-1.2623,-1.2636,-1.2658,-1.2693,-1.2696,-1.2712,-1.2732,-1.2733,-1.2763,-1.277,-1.2783,-1.2799,-1.2799,-1.2818,-1.2829,-1.283,-1.2807,-1.2804,-1.2802,-1.2798,-1.2822,0,0,0,0,0,-1.2563,-1.2579,-1.2614,-1.2622,-1.2633,-1.2663,-1.2673,-1.2691,-1.2714,-1.2723,-1.2745,-1.2767,-1.2784,-1.2795,-1.2813,-1.2824,-1.2831,-1.2826,-1.2824,-1.2822,-1.2821,-1.2828,-1.2827,-1.2847,-1.2847,-1.2847,0,0,-1.2551,-1.2576,-1.2583,-1.2616,-1.2635,-1.265,-1.267,-1.2685,-1.2696,-1.2725,-1.2742,-1.2759,-1.2785,-1.2798,-1.2805,-1.2812,-1.2818,-1.2821,-1.2819,-1.282,-1.2828,-1.2826,-1.2824,-1.2846,-1.2846,-1.2846,0,0,-1.2537,-1.2557,-1.2567,-1.2585,-1.2613,-1.2634,-1.2636,-1.2669,-1.2681,-1.2699,-1.2721,-1.2735,-1.2764,-1.2782,-1.2795,-1.2788,-1.2804,-1.2793,-1.278,-1.2787,-1.2785,-1.2784,-1.2781,-1.278,-1.2793,-1.2793,-1.2793,0,-1.2518,-1.2542,-1.2569,-1.2583,-1.2597,-1.2625,-1.2635,-1.2651,-1.2683,-1.2692,-1.2699,-1.2738,-1.2757,-1.2775,-1.2773,-1.2783,-1.2786,-1.2789,-1.2783,-1.2782,-1.2781,-1.2779,-1.2778,-1.2792,-1.2792,-1.2792,-1.2792,0,-1.2518,-1.2534,-1.2538,-1.257,-1.2584,-1.2596,-1.2624,-1.2636,-1.2652,-1.2671,-1.2689,-1.2713,-1.2737,-1.2742,-1.2758,-1.2763,-1.2766,-1.2778,-1.279,-1.2777,-1.2776,-1.2776,-1.2789,-1.279,-1.279,-1.2791,0,0,-1.2483,-1.253,-1.2531,-1.2546,-1.2579,-1.2592,-1.2605,-1.2629,-1.2638,-1.266,-1.2671,-1.2696,-1.2708,-1.2722,-1.274,-1.2746,-1.2739,-1.2757,-1.2758,-1.2753,-1.2746,-1.2737,-1.2735,-1.275,-1.275,-1.275,-1.2744,0,-1.2473,-1.2499,-1.2524,-1.254,-1.2555,-1.2582,-1.2594,-1.2616,-1.2634,-1.265,-1.267,-1.2687,-1.2701,-1.271,-1.2717,-1.2739,-1.2738,-1.2739,-1.2761,-1.2761,-1.2753,-1.2735,-1.2725,-1.2718,-1.2743,-1.2743,-1.2743,0,-1.2466,-1.2487,-1.2505,-1.2537,-1.2545,-1.2555,-1.2579,-1.2593,-1.2619,-1.2632,-1.2648,-1.2668,-1.2683,-1.2694,-1.2715,-1.2715,-1.2725,-1.2737,-1.2737,-1.274,-1.2751,-1.2736,-1.2716,-1.2715,-1.2743,-1.2743,-1.2743,0,-1.2438,-1.2471,-1.2486,-1.2498,-1.2537,-1.2543,-1.2559,-1.2585,-1.2598,-1.2619,-1.2628,-1.265,-1.2662,-1.2678,-1.2703,-1.2709,-1.2722,-1.2734,-1.2733,-1.2732,-1.2733,-1.2733,-1.2714,-1.2741,-1.2741,-1.2741,-1.2741,0,-1.2425,-1.2435,-1.2475,-1.2484,-1.2496,-1.2525,-1.2535,-1.2554,-1.2577,-1.259,-1.2615,-1.2626,-1.2659,-1.2674,-1.2694,-1.2708,-1.2713,-1.2724,-1.2729,-1.2722,-1.272,-1.2728,-1.2729,-1.274,-1.274,-1.274,-1.2741,0,-1.2396,-1.2423,-1.2441,-1.2477,-1.2486,-1.2493,-1.2523,-1.2533,-1.2553,-1.257,-1.2575,-1.2607,-1.2627,-1.2653,-1.2681,-1.2694,-1.2706,-1.2714,-1.2697,-1.27,-1.2697,-1.2697,-1.2682,-1.2682,-1.2709,-1.2708,-1.2708,0,-1.2386,-1.2394,-1.243,-1.2441,-1.2457,-1.2474,-1.2488,-1.2517,-1.253,-1.2559,-1.2566,-1.2587,-1.2606,-1.2636,-1.2662,-1.2683,-1.2692,-1.2685,-1.2695,-1.2687,-1.2691,-1.269,-1.2691,-1.2682,-1.2682,-1.2682,-1.2681,0,-1.2364,-1.2377,-1.2396,-1.242,-1.2435,-1.2455,-1.2476,-1.2483,-1.2517,-1.253,-1.2551,-1.2566,-1.2594,-1.2616,-1.2641,-1.2657,-1.2675,-1.2678,-1.2679,-1.2671,-1.2661,-1.2666,-1.269,-1.2678,-1.2679,-1.2679,-1.2679,-1.2679,-1.2344,-1.2353,-1.238,-1.24,-1.2419,-1.2438,-1.2449,-1.2472,-1.249,-1.2516,-1.2532,-1.2552,-1.2577,-1.2613,-1.2629,-1.2645,-1.2651,-1.2652,-1.2653,-1.2652,-1.265,-1.2659,-1.2649,-1.2649,-1.2649,-1.265,-1.265,0,-1.2324,-1.2343,-1.2361,-1.239,-1.2406,-1.2422,-1.2446,-1.2458,-1.2476,-1.2498,-1.2517,-1.254,-1.2561,-1.2589,-1.2611,-1.2619,-1.2628,-1.2624,-1.2623,-1.2627,-1.2642,-1.2639,-1.2617,-1.2617,-1.2617,-1.2617,-1.2617,-1.2617,-1.2315,-1.233,-1.2347,-1.2372,-1.2391,-1.2412,-1.2424,-1.2442,-1.246,-1.2486,-1.2504,-1.2522,-1.2546,-1.2571,-1.2591,-1.2599,-1.2606,-1.2599,-1.2609,-1.2623,-1.2626,-1.2629,-1.2626,-1.2601,-1.2601,-1.2593,-1.2592,-1.2592]}]]